Regional Weather Roundup
Issued by NWS Kansas City/Pleasant Hill, MO

Home | Current Version | Previous Version | Text Only | Print | Product List | Glossary On
Versions: 1 2 3 4 5 6 7 8 9 10 11 12 13 14 15 16 17 18 19 20 21 22 23 24 25 26 27 28 29 30 31 32 33 34 35 36 37 38 39 40 41 42 43 44 45 46 47 48 49 50
000
ASUS43 KEAX 042211
RWREAX

WEATHER ROUNDUP FOR EASTERN KANSAS AND NORTHWEST MISSOURI
NATIONAL WEATHER SERVICE KANSAS CITY/PLEASANT HILL MO
500 PM CDT MON MAY 04 2015

KSZ040-057-103>105-MOZ028-029-037-043-042300-
...KANSAS CITY METROPOLITAN AREA...

CITY           SKY/WX    TMP DP  RH WIND       PRES   REMARKS
K.C. INTL      PTSUNNY   79  61  53 SE12      29.96F
K.C. DOWNTOWN  PTSUNNY   83  60  45 S12       29.96F
LEES SUMMIT    MOSUNNY   82  60  47 S13G23    29.99F
OLATHE - IXD   PTSUNNY   81  60  48 S18       29.98F
OLATHE - OJC   PTSUNNY   80  62  54 S17       29.97F
LAWRENCE       PTSUNNY   83  59  44 S17G23    29.95F

$$

MOZ001>008-011>017-020>025-030>033-038>040-044>046-053-054-042300-
...NORTHERN AND CENTRAL MISSOURI...

CITY           SKY/WX    TMP DP  RH WIND       PRES   REMARKS
ST. JOSEPH     PTSUNNY   78  60  53 E9        29.96F
MOSBY          PTCLDY    81  57  44 S8        29.98S
WARRENSBURG    MOSUNNY   81  59  47 S15       30.00F
WHITEMAN AFB   PTSUNNY   81  63  54 S15       30.00F
CLINTON        MOSUNNY   82  64  54 S14       30.03F
SEDALIA        MOSUNNY   82  60  47 S14       30.04F
WARSAW         NOT AVBL
MARSHALL       PTSUNNY   84  63  48 S10       30.02F
CHILLICOTHE      N/A     80  61  52 SE8       30.01F
MOBERLY        PTSUNNY   79  57  47 S5        30.05F
KIRKSVILLE     PTSUNNY   77  63  61 S8        30.04F

$$

MOZ041-047>049-056>058-063>065-088>090-097-042300-
...EASTERN AND SOUTHERN MISSOURI...

CITY           SKY/WX    TMP DP  RH WIND       PRES   REMARKS
ST. LOUIS INTL PTSUNNY   85  57  38 SW9       30.06F
SPIRIT OF STL  PTSUNNY   83  57  41 SW7       30.04F
COLUMBIA       PTSUNNY   80  61  52 S12       30.04F
JEFFERSON CITY MOSUNNY   84  56  38 S15       30.02F
MEXICO         PTSUNNY   79  66  65 N7        30.06F
HANNIBAL       CLOUDY    79  57  47 SW10      30.05F
ROLLA          MOSUNNY   80  59  48 S9        30.06F
LEBANON        PTSUNNY   79  55  44 S10       30.08F
OSAGE BEACH    PTSUNNY  N/A N/A N/A S8        30.05F
SPRINGFIELD    CLOUDY    81  58  45 S16       30.07F
BRANSON        PTSUNNY   81  54  39 S9        30.11F
NEVADA         MOSUNNY   81  61  50 S16       30.04F
JOPLIN         MOSUNNY   81  60  48 S18       30.05F
WEST PLAINS    MOSUNNY   80  52  37 S12       30.12F

$$

IAZ060-094-KSZ022-034>040-054-083-096-NEZ052-066-093-042300-
...KANSAS...SOUTHEAST NEBRASKA AND IOWA...

CITY           SKY/WX    TMP DP  RH WIND       PRES   REMARKS
TOPEKA         PTSUNNY   85  60  42 S10G23    29.94F
MANHATTAN      TSTM      63  60  90 W9G25     29.98R VSB 1/2
EMPORIA        PTSUNNY   80  61  52 S21G31    29.95F
CHANUTE        MOSUNNY   81  61  50 S20       30.00F
WICHITA        PTSUNNY   84  60  44 S22G29    29.94F
OMAHA          CLOUDY    62  57  83 N14       30.07F
LINCOLN        CLOUDY    58  56  93 NE16      30.05F
FALLS CITY     LGT RAIN  67  63  87 E9        29.99F
LAMONI         CLOUDY    74  62  66 NE6       30.04F
DES MOINES     CLOUDY    69  60  73 N6        30.09R

$$




USA.gov is the U.S. government's official web portal to all federal, state and local government web resources and services.